COSMOS 1275 DEB, 42120

Orbit data source: Space-Track

COSMOS 1275 DEB, 42120 is space debris in LEO originally from a launch on Thu, 04 Jun 1981 UTC launched from the Plesetsk Missile And Space Complex (PKMTR). Debris objects in space refer to the collection of defunct objects orbiting the Earth. Examples of debris include non-operational satellites, rocket bodies, and fragments generated from explosions, collisions, or faulty payload assembly.

Loading next visibility...
Identifier
42120, 1981-053QG
Orbit
LEO
Country
Flag of CISCIS
Related business
Manufacturer
Unknown
Mission
Spacecraft
Bus & Motor
Unknown
Mass
Unknown
Launch date (UTC)
1981-06-04 (45 years ago)
Launch vehicle
Unknown
Launch site
Plesetsk Missile And Space Complex (PKMTR)
Object type
Payload
Rocket body
Debris
Shape & HBR
Unknown shape, 0.1 m
Radar Cross Section
Small (<0.1 m²)

Expand to show TLE details & history
Last TLE update: 1 month ago

TLE from 1 month ago
0 COSMOS 1275 DEB
1 42120U 81053QG  26075.39898718  .00000673  00000-0  81396-3 0  9995
2 42120  82.9242 112.8514 0188342 256.3528 101.6585 13.58098869608778
Epoch: 2026-03-16T09:34Z
TLE epoch observation values (Epoch: 2026-03-16T09:34:32.492Z)
Latitude
0.00001°
Longitude
155.22399°
Altitude
1,076.244 km
Speed
7.299 km/s
True Right ascension
07h 31m 24s
True Declination
0° 00' 00"
Sunlit
Object was in daylight at epoch
Visualization orbit readout
Latitude
Unknown
Longitude
Unknown
Altitude
Unknown
Speed
Unknown
Apparent Right ascension
Unknown
Apparent Declination
Unknown
Sunlit
N/A
Visualization observer readout
Local Sidereal Time
18:51:56
Azimuth
Unknown
Elevation
Unknown
Doppler factor
Unknown
Orbital elements
Apogee altitude
1,179.491 km
Perigee altitude
900.07 km
Semi-major axis
7,417.918 km
Eccentricity
0.01883
Inclination
82.9242°
RAAN
112.8514°
Arg. of periapsis
256.3528°
True anomaly
103.76173°
Mean anomaly
101.6585°
Eccentric anomaly
102.71117°
Mean motion
3.39719 °/min
Orbital period
105.97 mins
BSTAR
0.00081396
Loading maneuver chart data...
Computing Atmospheric mass density...

Documentation

Showing up to 5 results
|